Flag for Germany Weather past 2 weeks in Mühlacker, Baden-Württemberg, Germany

Now
45 °F

Clear.


Feels Like: 42 °F
Forecast: 33 / 61 °F
Wind: 5 mph from Northeast

Location: Stuttgart-Echterdingen


UV Index: 3 (Moderate)

Visibility: 10 mi


Pressure: 30.33 "Hg

Humidity: 57%

Dew point: 30 °F

Location of MühlackerLocation

Historic Weather in Mühlacker

°F

Mühlacker temperature yesterday

Maximum temperature yesterday: 45 °F (at 12:20 AM)
Minimum temperature yesterday: 36 °F (at 6:50 AM)
Average temperature yesterday: 42 °F

Past Weeks' High & Low Weather Summary

 TemperatureHumidityPressure
High70 °F (Apr 2, 2:20 PM)94% (Apr 5, 10:20 PM)30.36 "Hg (Apr 5, 10:20 PM)
Low32 °F (Apr 16, 6:20 AM)25% (Apr 13, 6:20 PM)29.65 "Hg (Apr 3, 5:50 PM)
Average53 °F61%30.03 "Hg
* Reported Apr 1 8:20 PM — Apr 16 8:50 PM, Mühlacker, Weather by CustomWeather, © 2014

Note: Actual official high and low records may vary slightly from our data, if they occured in-between our weather recording intervals... More about our weather records

Advertising

Historic Weather Conditions — Data for Previous 24 hours

 ConditionsComfort  
Time TempWeatherWind HumidityBarometerVisibility
8:50 PM
Apr 16
45 °FSunny.5 mph53%30.33 "Hg10 mi
8:20 PM46 °FSunny.7 mph53%30.33 "Hg10 mi
7:50 PM48 °FSunny.8 mph46%30.33 "Hg10 mi
7:20 PM52 °FSunny.6 mph44%30.33 "Hg10 mi
6:50 PM52 °FSunny.7 mph41%30.33 "Hg10 mi
6:20 PM50 °FSunny.7 mph43%30.33 "Hg10 mi
5:50 PM52 °FSunny.8 mph41%30.33 "Hg10 mi
5:20 PM52 °FSunny.7 mph41%30.33 "Hg10 mi
4:50 PM52 °FPassing clouds.7 mph44%30.33 "HgN/A
4:20 PM52 °FSunny.8 mph44%30.33 "Hg10 mi
3:50 PM50 °FSunny.8 mph43%30.36 "Hg10 mi
3:20 PM50 °FSunny.9 mph43%30.36 "Hg10 mi
2:50 PM50 °FSunny.10 mph43%30.36 "Hg10 mi
2:20 PM52 °FSunny.10 mph47%30.36 "Hg10 mi
1:50 PM50 °FPartly sunny.7 mph54%30.36 "HgN/A
1:20 PM50 °FScattered clouds.10 mph50%30.36 "HgN/A
12:50 PM46 °FScattered clouds.8 mph53%30.36 "HgN/A
12:20 PM48 °FPassing clouds.7 mph54%30.36 "HgN/A
11:50 AM46 °FPassing clouds.7 mph57%30.36 "HgN/A
11:20 AM46 °FPassing clouds.6 mph62%30.36 "HgN/A
10:50 AM45 °FPassing clouds.6 mph61%30.36 "HgN/A
10:20 AM43 °FPassing clouds.5 mph66%30.36 "HgN/A
9:50 AM43 °FPassing clouds.7 mph71%30.36 "HgN/A
9:20 AM41 °FPassing clouds.7 mph70%30.36 "HgN/A
8:50 AM39 °FSunny.6 mph75%30.36 "Hg10 mi
8:20 AM39 °FSunny.5 mph75%30.36 "Hg10 mi
7:50 AM36 °FSunny.2 mph81%30.36 "Hg10 mi
7:20 AM34 °FPassing clouds.1 mph81%30.33 "HgN/A
6:50 AM34 °FPassing clouds.1 mph81%30.33 "HgN/A
6:20 AM32 °FClear.1 mph87%30.33 "Hg10 mi
5:50 AM34 °FClear.1 mph81%30.33 "Hg10 mi
5:20 AM34 °FClear.No wind81%30.33 "Hg10 mi
4:50 AM34 °FClear.1 mph81%30.33 "Hg10 mi
4:20 AM34 °FPassing clouds.2 mph81%30.30 "HgN/A
3:50 AM36 °FPassing clouds.2 mph75%30.30 "HgN/A
3:20 AM37 °FPassing clouds.5 mph70%30.30 "HgN/A
2:50 AM37 °FPassing clouds.5 mph70%30.30 "HgN/A
2:20 AM41 °FPartly cloudy.1 mph61%30.30 "HgN/A
1:20 AM41 °FPartly cloudy.6 mph61%30.30 "HgN/A
12:20 AM41 °FPassing clouds.7 mph61%30.30 "HgN/A
11:50 PM
Apr 15
41 °FPassing clouds.5 mph61%30.30 "HgN/A
11:20 PM41 °FPassing clouds.6 mph61%30.30 "HgN/A
10:50 PM43 °FClear.5 mph57%30.27 "Hg10 mi
10:20 PM43 °FClear.6 mph57%30.27 "Hg10 mi
Weather by CustomWeather, © 2014

See weather overview